Location: Eschertshofen
(49.3064°N, 11.5756°E)
Time: 05:04:56
(UTC+00:00)

Cosmos 2082 Rocket - Pass Details

Date: 18 September 2020
Orbit: 834 x 852 km, 71.0° (Epoch: 20 October)

Event Time Altitude Azimuth Distance (km) Brightness Sun altitude
Rises 18:55:06 0° 334° (NNW) 3,394 6.1 -16.0°
Reaches altitude 10° 18:58:34 10° 356° (N) 2,457 5.0 -16.5°
Maximum altitude 19:02:00 16° 34° (NE) 2,047 4.1 -17.0°
Enters shadow 19:04:24 13° 62° (ENE) 2,254 4.1 -17.4°
